Temperature
17 17 17 18 18 18 17 17 17 17 17 17 18 18 17 17 17 17 17 17 17 17 18 18 18 18 18 18 18 18 18 18 18 18 17 18 18 18 18 18 18 18 18
18 17 18 18 18 17 17 17 17 17 17 17 17 17 17 17 17 17 17 17 17 17 17 17 17 17 17 18 18 18 18 17 17 17 18 18 18 18 18 18 18 18 18
18 18 17 18 17 17 17 17 17 17 17 17 17 17 17 17 17 17 17 17 17 17 17 17 17 17 17 17 17 17 17 17 17 17 17 17 17 17 18 18 17 17 18
18 18 18 18 17 17 17 17 17 17 17 17 17 17 17 17 17 17 17 17 17 17 17 17 17 17 17 17 17 17 17 17 17 17 17 17 17 17 17 17 17 17 17
18 18 18 17 17 17 17 17 17 17 17 17 17 17 17 17 17 17 17 17 17 17 17 17 17 17 17 17 17 17 17 17 17 17 17 17 17 17 17 17 17 17 17
18 18 18 18 17 17 17 17 17 17 17 17 17 17 17 17 17 17 17 17 17 17 17 17 17 17 17 17 17 17 17 17 17 17 17 17 17 17 17 17 17 17 17
18 18 17 17 17 17 17 17 17 17 17 17 17 17 17 17 17 17 17 17 17 17 17 17 16 16 16 16 16 16 16 17 17 16 16 16 16 17 17 17 17 17 17
18 17 17 17 17 17 17 17 17 17 17 17 17 17 16 17 17 17 17 17 17 16 16 16 16 16 16 16 16 16 16 16 16 16 16 16 16 16 17 17 17 16 17
17 17 17 17 17 17 17 17 17 17 17 17 16 16 16 16 16 16 16 16 16 16 16 16 16 16 16 16 16 16 16 16 16 16 16 16 16 16 16 16 16 16 16
17 17 17 17 17 17 17 17 17 17 16 16 16 16 16 16 16 16 16 16 16 16 16 16 16 16 16 16 16 16 16 16 16 16 16 16 16 16 16 16 16 16 16
17 17 17 17 17 17 17 17 17 16 16 16 16 16 16 16 16 16 16 16 16 16 16 16 16 16 16 16 16 16 16 16 16 16 16 16 16 16 16 16 16 16 16
17 17 17 17 17 17 17 17 16 16 16 16 16 16 16 16 16 16 16 16 16 16 16 16 16 16 16 16 16 16 16 16 16 16 16 16 16 16 16 16 16 16 16
17 17 17 17 17 17 17 17 16 16 16 16 16 16 16 16 16 16 16 16 16 16 16 16 16 16 16 16 16 16 16 16 16 15 15 15 15 15 16 16 15 16 16
17 17 17 17 17 17 16 16 16 16 16 16 16 16 16 16 16 16 16 16 16 15 15 15 16 16 15 15 16 16 15 15 16 15 15 15 15 15 15 15 15 15 15
17 17 17 17 17 17 16 16 16 16 16 16 16 16 16 16 16 16 15 15 15 15 15 15 15 15 15 15 15 15 15 15 15 15 15 15 15 15 15 15 15 15 15
17 17 17 17 17 16 16 16 16 16 16 16 16 16 16 16 15 15 15 15 15 15 15 15 15 15 15 15 15 15 15 15 15 15 15 15 15 15 15 15 15 15 15
17 17 17 17 16 16 16 16 16 16 16 16 15 15 15 15 15 15 15 15 15 15 15 15 15 15 15 15 15 15 15 15 15 15 15 15 15 15 15 15 15 15 15
17 17 17 16 16 16 16 16 16 16 16 16 16 15 15 15 15 15 15 15 15 15 15 15 15 15 15 15 15 15 15 15 15 15 15 15 15 15 14 14 14 14 15
17 17 17 16 16 16 16 16 16 16 16 15 15 15 15 15 15 15 15 15 15 15 15 15 15 15 15 15 15 15 15 15 14 14 15 14 14 14 14 14 14 14 14
17 17 17 16 16 16 16 16 16 15 15 15 15 15 15 15 15 15 15 15 15 15 15 15 15 15 15 15 15 15 15 14 14 14 14 14 14 14 14 14 14 14 14
17 17 17 16 16 16 16 16 16 15 15 15 15 15 15 15 15 15 15 15 15 15 15 15 15 15 15 15 15 14 14 14 14 14 14 14 14 14 14 14 14 14 14
17 17 16 16 16 16 16 16 15 15 15 15 15 15 15 15 14 14 15 15 14 14 14 14 14 14 14 14 14 14 14 14 14 14 14 14 14 14 14 14 14 14 14
17 17 16 16 16 16 16 15 15 15 15 15 15 15 14 14 14 14 14 14 14 14 14 14 14 14 14 14 14 14 14 14 14 14 14 14 14 14 14 14 13 13 13
16 16 16 16 16 16 15 15 15 15 15 15 15 14 14 14 14 14 14 14 14 14 14 14 14 14 14 14 14 14 14 14 14 13 13 13 13 13 13 13 13 13 13
16 16 16 16 16 16 15 15 15 15 15 15 14 14 14 14 14 14 14 14 14 14 14 14 14 14 14 14 13 14 14 13 13 13 13 13 13 13 13 13 13 13 13
16 16 16 16 16 15 15 15 15 15 15 14 14 14 14 14 14 14 14 14 14 14 14 14 14 14 13 13 13 13 13 13 13 13 13 13 13 13 13 13 13 13 13
Wind_Speed
1 3 7 7 8 8 8 9 9 9 10 10 11 11 11 11 12 12 12 13 12 13 13 13 12 12 11 12 12 12 11 11 11 11 10 10 10 9 9 9 8 7 9
4 5 7 8 8 8 8 8 9 9 9 9 10 11 11 11 11 11 12 12 12 12 13 13 13 11 11 11 11 11 11 10 10 10 10 9 9 9 9 9 8 7 8
6 6 8 8 8 8 8 8 8 8 8 9 10 11 11 11 11 11 12 12 12 12 12 12 12 12 11 11 10 11 10 10 10 10 9 7 7 9 8 8 8 8 8
7 7 8 8 8 8 8 8 7 7 8 9 10 11 11 10 11 11 11 11 12 12 12 12 12 12 12 12 11 11 10 10 10 9 7 6 6 8 8 8 8 8 8
7 7 9 9 9 9 8 7 6 7 8 10 10 11 11 11 11 11 11 11 11 11 11 11 11 11 11 11 12 12 12 12 11 10 8 7 6 8 8 8 8 8 8
6 8 9 9 9 9 8 7 7 8 10 11 12 12 11 11 11 11 11 11 11 11 11 11 10 10 11 11 12 12 13 12 11 9 7 6 6 8 8 8 8 8 8
6 7 9 9 9 9 9 9 9 10 12 12 12 12 11 11 11 11 11 11 11 11 10 10 10 10 10 11 12 12 13 13 10 8 7 6 7 8 8 8 8 7 7
7 6 8 9 10 9 9 10 11 12 13 13 12 11 11 11 11 11 11 11 10 10 10 9 9 9 10 11 12 12 13 11 10 8 7 7 8 9 9 8 7 7 7
7 6 5 6 7 8 9 9 10 11 11 11 11 11 10 10 10 10 10 10 10 9 9 9 8 9 10 11 12 13 13 13 9 7 7 7 9 10 10 9 8 7 7
5 4 4 4 5 5 6 7 8 9 9 9 9 9 9 9 9 9 8 8 8 8 8 7 7 8 9 10 11 12 13 11 9 8 6 7 10 10 10 9 9 9 8
5 4 3 3 3 3 4 5 6 6 6 6 6 7 7 6 6 6 6 7 7 7 6 7 7 8 9 10 11 11 11 9 8 7 6 8 10 10 10 9 9 9 9
4 4 3 3 3 3 3 4 3 4 4 4 5 5 5 5 5 4 5 5 5 5 6 6 7 8 7 7 9 9 8 8 7 6 7 9 10 10 10 10 10 10 9
4 4 4 3 3 3 3 3 2 3 3 3 4 6 5 5 4 4 3 3 4 5 5 5 6 6 6 6 6 7 7 7 6 6 7 10 10 10 10 10 10 10 10
4 3 3 4 3 3 3 3 2 2 2 2 3 5 5 4 3 2 2 2 2 3 3 3 3 5 6 7 7 6 7 6 6 6 7 9 10 10 11 11 11 10 10
4 3 3 4 4 3 3 2 2 2 2 3 3 4 6 4 3 2 2 2 2 3 3 3 3 4 4 5 6 6 5 5 6 6 6 8 9 9 10 10 10 10 9
3 3 3 4 3 4 3 2 2 2 2 3 3 4 5 5 4 3 2 2 2 3 3 4 4 4 3 4 4 5 5 5 5 5 5 6 7 8 9 9 9 9 9
4 3 3 3 3 4 3 2 2 2 3 3 3 4 5 5 5 4 3 2 1 3 5 5 4 4 4 4 4 3 4 4 3 4 4 4 4 6 8 8 8 8 9
4 3 3 4 4 4 3 2 2 3 4 3 4 4 5 5 5 4 3 2 3 4 4 3 3 3 3 3 2 2 2 2 2 2 2 3 3 4 5 7 7 7 8
5 4 4 4 4 4 3 3 3 3 3 3 4 4 4 5 5 4 3 2 4 4 3 3 3 3 2 2 1 2 2 1 1 2 2 2 2 3 3 4 6 6 6
5 5 5 4 4 4 3 3 3 3 2 3 3 3 4 4 5 4 3 3 4 3 3 3 3 2 2 2 2 2 2 2 1 1 1 2 2 2 2 3 4 3 5
4 4 4 4 3 3 2 2 2 1 1 1 2 3 4 3 4 4 3 3 2 2 2 3 3 3 2 2 3 3 3 3 2 1 1 1 1 1 2 3 3 3 3
4 4 4 4 3 3 3 2 2 2 1 1 1 2 3 3 3 4 3 2 2 2 3 2 2 2 1 1 2 2 2 3 3 2 1 1 1 1 2 2 3 3 2
5 5 5 4 4 3 3 3 2 2 2 2 1 1 1 2 2 3 3 3 3 3 2 1 2 3 1 1 1 3 3 2 2 3 2 2 2 2 1 1 2 2 3
5 4 4 4 4 3 4 4 4 3 2 2 1 1 0 1 2 2 3 3 3 2 2 2 2 2 3 1 1 0 2 3 2 1 2 2 2 2 1 1 1 1 2
6 5 4 4 3 3 3 4 4 2 2 1 1 1 1 1 0 1 2 2 2 2 2 2 2 2 2 2 1 1 1 1 2 2 1 2 2 2 1 1 0 1 1
5 4 4 4 3 3 4 4 4 4 3 3 2 2 0 0 1 0 1 1 2 2 2 2 2 3 2 2 2 2 2 2 2 2 2 1 1 2 2 1 1 0 0
Wind_Direction
160 156 122 109 103 98 93 92 89 89 87 87 87 84 83 81 79 79 80 78 77 75 72 72 79 83 85 87 90 91 92 94 97 100 100 98 98 100 100 99 97 99 94
157 137 119 109 105 102 98 96 92 91 91 91 91 89 85 83 82 82 82 82 80 77 75 74 76 82 85 86 88 89 91 92 94 100 100 96 95 98 100 98 98 99 97
134 128 118 112 108 104 99 98 95 95 97 95 95 93 89 86 84 85 85 83 81 79 78 78 76 77 81 84 85 87 89 92 96 102 100 93 97 100 101 102 103 103 101
132 127 121 117 110 104 100 97 96 99 102 102 99 96 92 89 88 87 87 85 83 81 80 80 79 78 77 77 78 81 85 88 96 100 92 87 93 100 101 102 103 101 96
123 124 125 120 113 108 101 94 97 107 113 113 107 102 97 92 88 88 86 84 85 84 82 81 80 79 77 76 76 76 80 84 89 86 83 85 86 93 95 96 100 99 97
124 127 128 121 117 111 99 90 97 105 116 119 112 106 100 94 91 90 87 85 86 84 82 82 82 81 79 77 75 76 79 82 83 78 78 83 83 88 89 92 94 96 98
129 130 131 124 120 113 101 91 98 103 112 116 113 108 103 98 96 94 91 88 85 85 84 82 84 81 80 79 78 78 82 85 81 80 77 79 83 84 88 90 93 93 92
133 132 134 128 124 117 107 98 98 102 106 111 112 109 104 100 98 96 94 92 88 87 84 83 84 83 82 80 80 81 82 84 81 78 74 79 84 81 83 90 91 96 97
131 126 126 129 129 123 116 110 107 107 108 110 113 112 107 103 100 98 97 95 93 89 85 82 83 83 80 80 80 80 81 81 75 71 80 79 86 86 83 82 86 88 93
128 131 128 129 131 134 130 122 116 115 115 116 117 117 115 111 106 103 100 97 97 94 88 84 81 83 84 79 79 80 81 79 70 66 75 87 89 87 86 85 82 80 88
134 138 135 131 140 149 147 135 127 123 121 123 125 122 117 113 112 108 107 103 101 96 89 86 82 83 80 77 79 81 79 79 73 67 74 90 89 85 83 83 83 80 83
143 145 141 144 153 152 141 130 133 127 123 124 127 127 126 126 129 123 116 111 102 90 81 81 81 75 70 71 76 80 80 79 71 70 78 86 86 85 82 80 82 83 82
146 139 143 148 150 137 119 129 128 120 123 133 135 136 134 128 123 116 103 91 82 76 66 60 65 68 73 78 82 84 84 82 73 69 78 83 84 85 82 77 80 81 83
115 134 148 143 137 133 125 128 131 122 119 128 146 140 134 126 124 128 127 110 87 83 76 66 70 80 84 85 91 91 89 90 85 77 79 83 83 85 85 78 75 76 81
119 143 161 151 144 138 125 132 129 128 131 140 137 138 140 135 135 135 144 131 107 101 100 93 88 90 92 93 98 102 98 96 93 87 84 85 85 84 84 80 76 76 83
140 144 137 130 138 130 128 132 135 133 130 126 135 139 141 141 140 137 122 115 107 106 111 109 102 96 94 96 93 104 109 106 98 92 87 86 88 87 87 83 78 75 82
159 140 137 134 123 122 126 128 123 113 108 103 117 122 119 126 131 129 114 102 108 106 107 98 89 89 90 85 79 90 108 111 111 103 94 90 87 89 90 87 81 77 81
134 123 134 119 111 117 119 107 99 97 93 96 101 102 99 110 119 124 115 109 109 108 107 104 90 86 81 81 76 66 81 108 120 128 119 115 102 95 95 93 89 84 84
142 133 125 114 114 113 110 97 91 94 88 91 90 87 90 102 110 118 117 109 103 100 102 113 95 103 103 90 88 68 51 66 97 119 115 138 127 111 106 102 99 95 90
139 131 125 119 124 118 105 87 70 74 77 78 84 86 94 98 104 111 113 101 101 95 86 92 99 85 103 111 96 62 27 18 41 66 94 108 130 132 120 104 92 84 86
132 127 125 123 137 128 116 111 106 101 84 72 75 92 101 103 109 113 101 98 95 101 114 112 106 91 73 82 79 37 12 16 26 12 37 70 74 106 121 121 104 97 84
156 146 140 139 145 148 143 146 155 152 142 143 92 84 108 118 123 129 122 115 110 101 91 89 96 103 76 75 112 97 19 356 355 7 9 43 28 71 89 110 122 119 112
160 165 165 166 155 154 140 116 93 68 47 34 18 32 40 117 124 130 135 138 131 123 128 124 122 123 136 9 92 134 140 211 306 337 356 14 16 44 40 87 120 138 136
181 174 168 165 154 152 141 133 136 142 160 215 215 199 360 123 121 128 134 140 144 140 150 169 142 136 137 159 351 66 154 156 149 307 336 353 9 17 4 51 101 123 149
175 171 168 158 153 158 154 151 153 155 183 183 171 115 59 14 121 135 149 144 153 160 173 176 155 146 143 161 179 166 107 93 120 146 225 316 347 337 348 350 97 84 125
169 164 156 156 164 165 165 164 165 170 173 148 162 153 186 299 305 316 167 160 172 177 182 185 172 158 157 158 165 168 168 162 178 162 180 218 275 301 326 346 9 328 213
Height
1521 1521 1520 1520 1519 1518 1518 1517 1516 1515 1515 1514 1514 1514 1514 1514 1513 1513 1512 1512 1511 1511 1510 1510 1510 1509 1509 1509 1509 1510 1510 1511 1511 1512 1512 1513 1513 1514 1514 1514 1514 1515 1515
1521 1520 1520 1520 1519 1518 1517 1517 1516 1515 1515 1515 1514 1514 1514 1514 1514 1514 1513 1513 1512 1512 1511 1511 1511 1511 1510 1510 1510 1511 1511 1511 1512 1512 1513 1513 1514 1514 1514 1515 1515 1515 1515
1521 1520 1520 1520 1519 1518 1517 1516 1516 1515 1515 1515 1514 1514 1514 1515 1515 1514 1514 1514 1513 1513 1512 1512 1512 1512 1511 1511 1511 1512 1512 1512 1513 1513 1514 1514 1515 1515 1515 1515 1515 1515 1515
1521 1521 1520 1520 1519 1518 1517 1516 1514 1513 1513 1514 1514 1515 1515 1515 1515 1515 1515 1515 1514 1514 1514 1513 1513 1513 1513 1512 1512 1513 1513 1513 1514 1514 1515 1515 1515 1516 1516 1516 1516 1516 1516
1521 1521 1521 1520 1519 1518 1517 1514 1511 1509 1510 1512 1514 1515 1515 1516 1516 1516 1516 1515 1515 1515 1515 1514 1514 1514 1514 1514 1514 1514 1514 1514 1514 1515 1516 1516 1516 1517 1517 1517 1517 1516 1516
1522 1522 1521 1521 1520 1519 1516 1513 1508 1505 1505 1509 1513 1515 1516 1516 1517 1517 1517 1517 1516 1516 1516 1516 1516 1515 1515 1515 1515 1515 1515 1515 1515 1516 1516 1517 1517 1517 1517 1517 1517 1517 1516
1523 1523 1522 1522 1521 1519 1517 1513 1508 1505 1505 1509 1513 1516 1517 1518 1518 1518 1518 1518 1518 1517 1517 1517 1517 1517 1517 1517 1517 1517 1517 1517 1517 1517 1517 1517 1517 1517 1517 1517 1517 1517 1516
1524 1524 1524 1523 1522 1521 1519 1516 1513 1511 1511 1513 1516 1518 1519 1519 1519 1519 1520 1519 1519 1519 1519 1519 1518 1518 1518 1518 1518 1518 1518 1518 1518 1518 1518 1518 1518 1518 1518 1517 1517 1517 1517
1525 1525 1525 1524 1523 1522 1521 1520 1519 1517 1517 1518 1519 1520 1521 1521 1521 1521 1521 1521 1521 1521 1520 1520 1520 1520 1520 1520 1520 1520 1519 1519 1519 1519 1519 1519 1519 1518 1518 1517 1517 1517 1517
1526 1526 1526 1525 1525 1524 1523 1523 1522 1521 1521 1522 1522 1522 1523 1523 1523 1523 1523 1523 1523 1522 1522 1522 1522 1522 1522 1521 1521 1521 1521 1521 1520 1520 1520 1520 1520 1519 1519 1518 1517 1517 1516
1527 1527 1527 1526 1526 1526 1525 1525 1524 1524 1524 1524 1524 1524 1524 1525 1525 1525 1525 1525 1524 1524 1524 1524 1523 1523 1523 1523 1523 1523 1522 1522 1522 1522 1522 1521 1521 1520 1519 1519 1518 1517 1517
1527 1527 1527 1527 1527 1527 1526 1526 1526 1526 1526 1525 1525 1525 1526 1526 1526 1526 1527 1526 1526 1526 1526 1525 1525 1525 1525 1524 1524 1524 1524 1523 1523 1523 1523 1523 1522 1521 1520 1520 1519 1518 1518
1527 1528 1528 1528 1528 1528 1528 1527 1527 1527 1527 1527 1527 1527 1527 1527 1527 1528 1528 1528 1528 1528 1527 1527 1527 1526 1526 1526 1526 1526 1525 1525 1525 1524 1524 1524 1523 1522 1522 1521 1520 1520 1519
1528 1528 1528 1528 1528 1528 1528 1528 1528 1528 1528 1528 1528 1528 1528 1528 1528 1529 1529 1529 1529 1529 1529 1528 1528 1528 1528 1528 1528 1527 1527 1527 1526 1526 1526 1525 1524 1524 1523 1522 1521 1521 1520
1528 1528 1528 1528 1528 1529 1529 1529 1529 1529 1529 1529 1528 1529 1529 1529 1529 1529 1530 1530 1530 1530 1530 1530 1530 1529 1529 1529 1529 1529 1529 1528 1528 1527 1527 1527 1526 1525 1524 1523 1522 1521 1521
1528 1528 1528 1529 1529 1529 1529 1529 1529 1529 1529 1529 1529 1529 1529 1529 1530 1530 1530 1531 1531 1531 1531 1531 1531 1530 1530 1530 1530 1530 1530 1530 1529 1529 1528 1528 1527 1526 1525 1524 1523 1522 1522
1527 1528 1528 1529 1529 1529 1529 1529 1529 1529 1529 1529 1529 1529 1530 1530 1530 1530 1530 1531 1531 1531 1531 1531 1531 1531 1531 1531 1531 1531 1531 1531 1530 1530 1529 1529 1528 1527 1527 1526 1525 1523 1523
1527 1527 1528 1529 1529 1529 1529 1529 1529 1529 1529 1530 1529 1529 1530 1530 1530 1530 1530 1531 1531 1531 1531 1531 1531 1531 1531 1531 1531 1531 1531 1531 1531 1531 1530 1530 1529 1529 1528 1527 1526 1525 1524
1526 1527 1528 1528 1528 1529 1529 1529 1529 1529 1529 1529 1529 1530 1530 1530 1530 1530 1530 1530 1531 1531 1531 1531 1531 1531 1531 1531 1532 1532 1532 1532 1532 1531 1531 1531 1530 1530 1529 1528 1527 1526 1525
1526 1526 1527 1527 1528 1528 1528 1529 1529 1529 1529 1529 1529 1529 1529 1529 1529 1529 1530 1530 1530 1530 1530 1530 1531 1531 1531 1531 1531 1532 1532 1532 1532 1532 1532 1531 1531 1530 1530 1529 1528 1528 1527
1525 1526 1526 1526 1527 1527 1527 1528 1528 1528 1529 1529 1529 1529 1529 1529 1529 1529 1529 1529 1529 1529 1529 1530 1530 1530 1530 1531 1531 1531 1532 1532 1532 1532 1532 1532 1531 1531 1530 1530 1529 1529 1528
1524 1525 1525 1525 1526 1526 1526 1527 1527 1528 1528 1528 1528 1528 1528 1528 1528 1528 1528 1528 1528 1528 1528 1528 1529 1529 1529 1530 1530 1530 1531 1533 1532 1532 1532 1531 1531 1531 1531 1530 1530 1529 1529
1523 1523 1524 1525 1525 1525 1526 1526 1526 1527 1527 1527 1527 1527 1527 1527 1527 1527 1527 1527 1527 1527 1527 1528 1528 1528 1528 1529 1529 1530 1530 1530 1530 1531 1531 1531 1531 1530 1530 1530 1530 1529 1529
1521 1522 1523 1524 1524 1525 1525 1525 1525 1525 1525 1525 1525 1525 1525 1526 1526 1526 1526 1526 1526 1526 1526 1527 1527 1527 1528 1528 1528 1528 1529 1529 1529 1530 1530 1530 1530 1530 1529 1529 1529 1529 1529
1520 1521 1522 1523 1523 1524 1524 1524 1524 1524 1524 1524 1524 1524 1524 1524 1524 1525 1525 1525 1525 1525 1525 1525 1525 1526 1526 1527 1527 1527 1527 1528 1528 1528 1528 1529 1529 1529 1528 1528 1528 1528 1528
1518 1519 1520 1521 1521 1522 1522 1522 1522 1522 1522 1522 1522 1522 1523 1523 1523 1523 1523 1523 1523 1523 1523 1524 1524 1524 1524 1525 1525 1525 1525 1526 1526 1526 1526 1526 1527 1528 1528 1528 1527 1527 1527